Weather in Semenivka

Ukraine / Poltava Region     49°35′47″N   33°11′11″E
temp.,
°C
wind,
m/s
gust,
m/s
humid.,
%
clouds,
%
prec.,
mm/h
press.,
hPa
HPBL,
m
6 may, thu
thu600:00+11s51268100 0.0 1012316
03:00+11s51367100 0.0 1012507
06:00+10s6136799 0.0 1011476
09:00+13s81460100 0.0 1010790
12:00+14ssw7106091 0.1 10111295
15:00+12nw6885100 0.3 1012538
18:00+10nw3786100 0.4 1013445
21:00+8wsw11884 0.4 101410
7 may, fri
fri700:00+7sw2290100 0.0 101515
03:00+8sw228997 0.0 101612
06:00+7sw11875 0.0 101610
09:00+13sse236210 0.0 1016523
12:00+17sse4544100 0.0 10151183
15:00+17s5851100 0.0 10142028
18:00+11se3991100 1.8 1013353
21:00+12se61477100 1.8 1011320
8 may, sat
sat800:00+12s41190100 1.1 1010496
03:00+12s51394100 3.0 1008479
06:00+12ssw51193100 0.4 1008520
09:00+13w6893100 0.6 1009773
12:00+9nw61091100 1.6 1012651
15:00+11nw7866100 1.7 10131323
18:00+11wnw3567100 0.1 1013225
21:00+8nw51270100 0.1 1015384
9 may, sun
sun900:00+6nw413762 0.0 1017409
03:00+4wnw411835 0.0 1019304
06:00+3wnw411860 0.0 1020320
09:00+9nw79651 0.0 10211056
12:00+12nw894825 0.0 10222039
15:00+13nw794396 0.0 10232467
18:00+13nw57525 0.0 10242167
21:00+7nw34682 0.0 102642
10 may, mon
mon1000:00+6nnw226991 0.0 102720
03:00+5nnw22695 0.0 102811
06:00+5nnw22705 0.0 102820
09:00+12nnw23535 0.0 1028478
12:00+15nnw45435 0.0 10271805
15:00+16nnw56435 0.0 10252125
18:00+15n56535 0.0 10241788
21:00+10n46720 0.0 102477